Location: Bathurst
(33.4193°S, 149.5775°E)
Time: 08:59:20
(UTC+10:00)

Vanguard 1 Rocket - Pass Details

Date: 17 June 2021
Orbit: 650 x 4226 km, 34.3° (Epoch: 02 August)

Event Time Altitude Azimuth Distance (km) Brightness Sun altitude
Rises 15:04:10 0° 256° (WSW) 4,639 11.4 18.6°
Reaches altitude 10° 15:08:01 10° 261° (W) 3,169 10.8 18.1°
Maximum altitude 15:14:41 46° 332° (NNW) 1,103 9.0 17.1°
Drops below altitude 10° 15:19:08 10° 46° (NE) 2,127 9.3 16.4°
Sets 15:21:15 0° 52° (NE) 2,968 10.0 16.1°
